Location: Bieujac
(44.5398°N, 0.1549°W)
Time: 21:32:43
(UTC+00:00)

Cosmos 1437 - Pass Details

Date: 17 November 2019
Orbit: 380 x 384 km, 81.2° (Epoch: 10 December)

Event Time Altitude Azimuth Distance (km) Brightness Sun altitude
Rises 05:56:24 0° 194° (SSW) 2,245 6.5 -11.3°
Reaches altitude 10° 05:58:23 10° 197° (SSW) 1,398 5.4 -10.9°
Maximum altitude 06:01:24 67° 281° (WNW) 420 2.5 -10.4°
Drops below altitude 10° 06:04:28 10° 5° (N) 1,415 5.3 -9.9°
Sets 06:06:29 0° 8° (N) 2,275 6.4 -9.5°
